[[{"header":{"parameterUnit":"m.s-1","parameterCategory":2,"la1":30.2991,"la2":30.254,"lo1":-89.0895,"lo2":-89.0444,"dy":0.0017,"dx":0.0017,"nx":28,"ny":28,"refTime":"2024-10-10T21:00:00:Z","depth":"0","parameterNumber":2,"parameterNumberName":"U-component_of_CURRENTS"},"data":[0,0,0,0,0,0,0,0,0,0,0,0,0,0,0,0,0,0,0,0,0,0,0,0,0,0,0,0,0,0,0,0,0,0,0,0,0,0,0,0,0,0,0,0,0,0,0,0,0,0,0,0,0,0,0,0,0,0,0.2001,0.2001,0,0.196,0.1959,0.1959,0.1928,0.1928,0.1927,0.1927,0.1838,0.1836,0.1834,0,0,0,0,0,0,0,0,0,0,0,0,0,0.201,0.201,0.2001,0.2001,0.2,0.196,0.1959,0.1959,0.1928,0.1928,0.1927,0.1927,0.1839,0.1836,0.1833,0,0,0,0,0,0,0,0,0,0,0,0,0,0.1991,0.201,0.2001,0.198,0.1978,0.196,0.1959,0.1958,0.1928,0.1928,0.1927,0.1927,0.1839,0.1836,0.1833,0.1821,0,0,0.1823,0.1822,0,0,0,0,0,0,0,0,0.1992,0.1991,0.1984,0.1981,0.1979,0.1949,0.193,0.191,0.1928,0.1947,0.1927,0.1927,0.1871,0.1865,0.1859,0.1817,0.1813,0.1823,0.1821,0.182,0.1819,0,0,0,0,0,0,0,0.1994,0.1992,0.1985,0.1983,0.198,0.1958,0.1955,0.1926,0.191,0.1945,0.1943,0.1938,0.1869,0.1862,0.1856,0.1812,0.1823,0.182,0.1818,0.1817,0.1777,0.1778,0,0,0,0,0,0,0.2002,0.1994,0.1986,0.1983,0.1985,0.1958,0.1955,0.1959,0.1912,0.1905,0.1939,0.1937,0.1867,0.186,0.1853,0.1826,0.182,0.1817,0.1815,0.1776,0.1777,0.1778,0,0,0,0,0,0,0.2002,0.2002,0.1988,0.1987,0.1984,0.1959,0.1963,0.1958,0.1951,0.1908,0.1899,0.1936,0.1867,0.1857,0.1839,0.1823,0.1815,0.1812,0.1775,0.1777,0.1778,0.1779,0,0,0,0,0,0,0.2003,0.2003,0.2003,0.1988,0.1984,0.1974,0.1963,0.1957,0.1949,0.1946,0.1903,0.1894,0.1866,0.1844,0.1835,0.1818,0.181,0.1774,0.1776,0.1777,0.1778,0.1781,0.1783,0,0,0,0,0,0.2004,0.1997,0.2004,0.2002,0.1988,0.1974,0.1969,0.195,0.1949,0.1943,0.1927,0.1895,0.1848,0.1842,0.1832,0.1813,0.1773,0.1775,0.1777,0.1777,0.178,0.1783,0,0,0,0,0,0,0.1987,0.1994,0.2,0.1993,0.1987,0.1968,0.1955,0.1954,0.1937,0.1935,0.1903,0.1893,0.1871,0.1854,0.1848,0.1813,0.1807,0.1807,0.181,0.1812,0.1815,0.1808,0.1807,0,0,0,0,0,0.1991,0.1992,0.1995,0.1985,0.1986,0.1977,0.1968,0.1963,0.1948,0.194,0.1913,0.1892,0.1872,0.1853,0.1832,0.1808,0.18,0.1795,0.1797,0.1799,0.1791,0.1787,0.1788,0.1785,0.1784,0.1784,0,0,0.1977,0.1982,0.1979,0.1983,0.1975,0.197,0.197,0.1959,0.195,0.1932,0.1906,0.1896,0.1872,0.1848,0.1836,0.1827,0.1797,0.1801,0.1802,0.1793,0.1789,0.1789,0.1789,0.1786,0.1786,0.1785,0,0,0.195,0.1962,0.1958,0.1959,0.1959,0.1958,0.196,0.1952,0.1944,0.193,0.192,0.1909,0.1869,0.1851,0.1837,0.1843,0.1814,0.1836,0.1827,0.1825,0.1824,0.1824,0.1815,0.1814,0.183,0.183,0.183,0,0.1928,0.1938,0.195,0.1948,0.1945,0.1957,0.1951,0.1944,0.1929,0.1922,0.1921,0.1888,0.1869,0.1843,0.1846,0.1842,0.1837,0.1814,0.1825,0.1824,0.1824,0.1815,0.1814,0.1831,0.183,0.183,0.183,0,0.1909,0.1914,0.1908,0.1918,0.1916,0.191,0.1916,0.1913,0.1913,0.1905,0.1889,0.1876,0.1855,0.1851,0.1844,0.183,0.1827,0.1832,0.1813,0.1824,0.1815,0.1813,0.1831,0.1831,0.1831,0.1831,0,0,0.1853,0.1889,0.1885,0.1897,0.1905,0.1902,0.1894,0.1891,0.1887,0.1875,0.1859,0.1841,0.1842,0.183,0.1825,0.182,0.1816,0.1822,0.1822,0.1803,0.1805,0.1796,0.1793,0.1821,0.1821,0.1821,0.18,0,0.183,0.1837,0.1857,0.1854,0.186,0.1875,0.1868,0.1866,0.1863,0.1851,0.1843,0.1828,0.1831,0.1827,0.1822,0.1817,0.1812,0.1821,0.1806,0.1805,0.1787,0.1791,0.1745,0.1722,0.1798,0.1798,0.1798,0,0.18,0.1816,0.1818,0.1846,0.1849,0.1845,0.185,0.1847,0.1837,0.1834,0.1821,0.1815,0.1799,0.1811,0.1795,0.1801,0.1802,0.1802,0.1802,0.1788,0.1793,0.1724,0.1716,0.1564,0.1795,0.1795,0.1796,0,0.1764,0.1785,0.1792,0.1797,0.1825,0.1825,0.1838,0.1835,0.1836,0.1824,0.1818,0.18,0.179,0.1789,0.178,0.179,0.1764,0.1781,0.1773,0.1773,0.1727,0.1722,0.1558,0.1777,0.1777,0.1778,0.1778,0,0.1732,0.1737,0.1779,0.1781,0.1789,0.1811,0.1811,0.182,0.1821,0.181,0.181,0.1793,0.1787,0.1768,0.177,0.1755,0.1755,0.1766,0.1766,0.1728,0.1724,0.1586,0.1474,0.1777,0.1777,0.1777,0.1777,0,0.169,0.1716,0.1731,0.1765,0.1773,0.1778,0.1805,0.1806,0.1813,0.1798,0.1794,0.1781,0.1757,0.1746,0.1734,0.1739,0.1651,0.173,0.1682,0.1676,0.1543,0.1434,0.1315,0.1298,0.1723,0.1723,0.1723,0,0.1673,0.1677,0.1715,0.1727,0.1743,0.176,0.1768,0.1791,0.1789,0.1785,0.1769,0.1749,0.1713,0.1689,0.1695,0.1687,0.1601,0.1652,0.1671,0.1515,0.1393,0.1376,0.1371,0.161,0.1609,0.1608,0.1607,0,0.1646,0.1659,0.1678,0.1705,0.1718,0.1729,0.1742,0.1733,0.1747,0.1729,0.1696,0.167,0.1661,0.1614,0.1617,0.1625,0.152,0.1633,0.1478,0.1286,0.1249,0.124,0.1638,0.1598,0.1599,0.16,0.16,0.1601,0.1621,0.1633,0.1662,0.1689,0.17,0.1687,0.1653,0.1657,0.1629,0.1553,0.1601,0.1524,0.1506,0.1503,0.1508,0.1424,0.1451,0.1368,0.1249,0.1252,0.1218,0.1597,0.1557,0.1558,0.1558,0.1559,0.1559,0,0.1592,0.1619,0.1649,0.1663,0.1658,0.1667,0.1625,0.1558,0.1479,0.144,0.139,0.132,0.1261,0.1249,0.1177,0.1046,0.1089,0.0942,0.0868,0.089,0.1218,0.1195,0.1068,0.1068,0.1068,0.1068,0.1068,0.1068,0.1578,0.16,0.163,0.1623,0.1618,0.153,0.1472,0.1361,0.1298,0.1173,0.1101,0.109,0.0998,0.0768,0.0605,0.0587,0.0474,0.0433,0.0416,0.0557,0.0588,0.0617,0.0571,0.0314,0.0313,0.0174,0.0171,0.0169]},{"header":{"parameterUnit":"m.s-1","parameterCategory":2,"la1":30.2991,"la2":30.254,"lo1":-89.0895,"lo2":-89.0444,"dy":0.0017,"dx":0.0017,"nx":28,"ny":28,"refTime":"2024-10-10T21:00:00:Z","depth":"0","parameterNumber":3,"parameterNumberName":"V-component_of_CURRENTS"},"data":[0,0,0,0,0,0,0,0,0,0,0,0,0,0,0,0,0,0,0,0,0,0,0,0,0,0,0,0,0,0,0,0,0,0,0,0,0,0,0,0,0,0,0,0,0,0,0,0,0,0,0,0,0,0,0,0,0,0,-0.1879,-0.1878,0,-0.1835,-0.1834,-0.1834,-0.1791,-0.179,-0.179,-0.1789,-0.1701,-0.17,-0.1699,0,0,0,0,0,0,0,0,0,0,0,0,0,-0.1873,-0.1874,-0.1879,-0.1878,-0.1878,-0.1835,-0.1834,-0.1834,-0.1792,-0.179,-0.1789,-0.1788,-0.1702,-0.17,-0.1698,0,0,0,0,0,0,0,0,0,0,0,0,0,-0.186,-0.1874,-0.1879,-0.1848,-0.1845,-0.1835,-0.1834,-0.1834,-0.1792,-0.179,-0.1789,-0.1788,-0.1703,-0.17,-0.1698,-0.1711,0,0,-0.1691,-0.169,0,0,0,0,0,0,0,0,-0.1861,-0.1861,-0.1854,-0.185,-0.1846,-0.1814,-0.18,-0.1789,-0.1792,-0.1816,-0.1789,-0.1787,-0.1734,-0.1729,-0.1729,-0.1707,-0.1703,-0.1691,-0.169,-0.1689,-0.1688,0,0,0,0,0,0,0,-0.1862,-0.1862,-0.1865,-0.1853,-0.1848,-0.1817,-0.1815,-0.1798,-0.1785,-0.1814,-0.1809,-0.1799,-0.1732,-0.1732,-0.1727,-0.1702,-0.1691,-0.1689,-0.1688,-0.1687,-0.1688,-0.1689,0,0,0,0,0,0,-0.1865,-0.1864,-0.1867,-0.1864,-0.1846,-0.1819,-0.1816,-0.1829,-0.1786,-0.1777,-0.18,-0.1797,-0.1736,-0.1729,-0.1723,-0.1725,-0.1689,-0.1687,-0.1685,-0.1687,-0.1688,-0.169,0,0,0,0,0,0,-0.1866,-0.1867,-0.1868,-0.1858,-0.1855,-0.182,-0.1835,-0.1828,-0.1828,-0.1775,-0.1766,-0.1805,-0.1735,-0.1726,-0.1727,-0.1721,-0.1686,-0.1684,-0.1685,-0.1687,-0.1689,-0.1734,0,0,0,0,0,0,-0.1866,-0.1868,-0.1882,-0.1859,-0.1856,-0.187,-0.1835,-0.1828,-0.1822,-0.1817,-0.1777,-0.1767,-0.1733,-0.1731,-0.1725,-0.1717,-0.1682,-0.1683,-0.1686,-0.1688,-0.1731,-0.1738,-0.1743,0,0,0,0,0,-0.1866,-0.189,-0.1884,-0.1884,-0.1877,-0.187,-0.1867,-0.1838,-0.1823,-0.1832,-0.1814,-0.1768,-0.1742,-0.1731,-0.1723,-0.1715,-0.1682,-0.1685,-0.1688,-0.1728,-0.1736,-0.1743,0,0,0,0,0,0,-0.1891,-0.1887,-0.188,-0.1901,-0.1889,-0.1862,-0.1866,-0.1848,-0.1843,-0.1841,-0.1793,-0.1784,-0.1778,-0.1755,-0.1744,-0.1727,-0.1702,-0.1703,-0.1735,-0.1742,-0.1748,-0.1738,-0.168,0,0,0,0,0,-0.1906,-0.1924,-0.1909,-0.1924,-0.1924,-0.19,-0.1894,-0.1878,-0.1864,-0.186,-0.1829,-0.1804,-0.1788,-0.1773,-0.1756,-0.1753,-0.1728,-0.1743,-0.1749,-0.1754,-0.1744,-0.1726,-0.1729,-0.17,-0.17,-0.17,0,0,-0.1915,-0.1917,-0.1925,-0.1931,-0.1922,-0.1924,-0.1895,-0.1896,-0.1891,-0.1852,-0.1844,-0.1827,-0.1796,-0.1789,-0.1783,-0.1766,-0.1754,-0.1758,-0.1762,-0.1749,-0.173,-0.1732,-0.1734,-0.1702,-0.1702,-0.1701,0,0,-0.1939,-0.1953,-0.1973,-0.1969,-0.1961,-0.195,-0.1954,-0.1936,-0.1924,-0.1923,-0.1892,-0.188,-0.1852,-0.1826,-0.1809,-0.1844,-0.1791,-0.1836,-0.1848,-0.1832,-0.1833,-0.1834,-0.1818,-0.1817,-0.1833,-0.1833,-0.1833,0,-0.1937,-0.1972,-0.1975,-0.1985,-0.1978,-0.1965,-0.1971,-0.1966,-0.1946,-0.1936,-0.1926,-0.1889,-0.1865,-0.1845,-0.1855,-0.1852,-0.1837,-0.1819,-0.1837,-0.1838,-0.1838,-0.1821,-0.182,-0.1835,-0.1835,-0.1835,-0.1835,0,-0.1973,-0.1993,-0.2005,-0.2016,-0.2015,-0.2022,-0.2009,-0.2011,-0.1996,-0.1975,-0.1959,-0.1937,-0.1907,-0.1901,-0.1885,-0.1872,-0.186,-0.1851,-0.1813,-0.1843,-0.1824,-0.1822,-0.1839,-0.1838,-0.1837,-0.1837,0,0,-0.1951,-0.2017,-0.2013,-0.2026,-0.203,-0.203,-0.2037,-0.2028,-0.2023,-0.2005,-0.1988,-0.1966,-0.1946,-0.1929,-0.1906,-0.1889,-0.1884,-0.1871,-0.1868,-0.1845,-0.1848,-0.1778,-0.1768,-0.1876,-0.1876,-0.1875,-0.1838,0,-0.196,-0.2006,-0.2028,-0.2048,-0.2062,-0.2058,-0.2061,-0.2052,-0.2039,-0.2025,-0.1996,-0.1979,-0.1959,-0.1948,-0.1929,-0.1894,-0.1877,-0.1895,-0.183,-0.1828,-0.1753,-0.1763,-0.16,-0.1547,-0.1835,-0.1835,-0.1834,0,-0.1962,-0.1996,-0.2031,-0.2066,-0.207,-0.2077,-0.2074,-0.2079,-0.2061,-0.2049,-0.2027,-0.2004,-0.1976,-0.1962,-0.1907,-0.1919,-0.1887,-0.1859,-0.1857,-0.1768,-0.1752,-0.1562,-0.1531,-0.1416,-0.183,-0.183,-0.183,0,-0.1932,-0.1983,-0.2017,-0.2024,-0.2064,-0.2069,-0.2086,-0.2077,-0.2077,-0.2065,-0.2055,-0.2022,-0.2001,-0.1961,-0.1901,-0.1908,-0.1835,-0.1839,-0.1746,-0.1742,-0.1575,-0.1556,-0.141,-0.1802,-0.1802,-0.1802,-0.1802,0,-0.1915,-0.1932,-0.2009,-0.2019,-0.2042,-0.2067,-0.2078,-0.2085,-0.2087,-0.2073,-0.2067,-0.2038,-0.2,-0.1951,-0.1905,-0.1806,-0.1838,-0.1739,-0.1721,-0.1589,-0.1573,-0.1443,-0.1382,-0.1801,-0.1801,-0.1801,-0.1802,0,-0.1859,-0.1918,-0.1951,-0.2011,-0.2028,-0.2038,-0.2082,-0.2087,-0.2096,-0.2078,-0.2075,-0.2048,-0.1973,-0.1921,-0.1847,-0.1799,-0.1615,-0.1684,-0.1531,-0.1495,-0.1301,-0.1249,-0.1094,-0.103,-0.1575,-0.1573,-0.1571,0,-0.1841,-0.186,-0.1932,-0.196,-0.1986,-0.202,-0.2038,-0.2075,-0.2077,-0.2065,-0.2046,-0.199,-0.1898,-0.1771,-0.1663,-0.1555,-0.1499,-0.1384,-0.1365,-0.1252,-0.1182,-0.1187,-0.1146,-0.1171,-0.1166,-0.1162,-0.1159,0,-0.1795,-0.1821,-0.185,-0.1912,-0.1946,-0.1983,-0.2016,-0.2012,-0.2034,-0.1996,-0.1927,-0.1855,-0.172,-0.1504,-0.1388,-0.1322,-0.1227,-0.13,-0.1207,-0.0862,-0.083,-0.0772,-0.1252,-0.1124,-0.1127,-0.113,-0.1132,-0.1133,-0.174,-0.1753,-0.1806,-0.1854,-0.1903,-0.1926,-0.1898,-0.1906,-0.1864,-0.1739,-0.1765,-0.158,-0.1362,-0.1144,-0.1074,-0.0855,-0.0954,-0.0771,-0.0724,-0.0749,-0.065,-0.1058,-0.09,-0.0902,-0.0904,-0.0906,-0.0907,0,-0.1673,-0.1711,-0.1758,-0.1809,-0.1836,-0.1879,-0.1864,-0.1787,-0.167,-0.155,-0.1426,-0.1148,-0.086,-0.0705,-0.044,-0.0295,-0.0299,-0.0234,-0.0177,-0.0173,-0.0528,-0.0472,-0.0182,-0.0182,-0.0182,-0.0183,-0.0183,-0.0183,-0.1643,-0.1665,-0.1704,-0.1733,-0.1763,-0.1718,-0.1672,-0.1522,-0.1406,-0.1152,-0.0964,-0.0854,-0.0696,-0.0204,0.0104,0.0159,0.0244,0.0304,0.0241,0.0045,-0.0003,-0.0048,0.0018,0.0406,0.0407,0.0616,0.0619,0.0621]}],[{"header":{"parameterUnit":"m.s-1","parameterCategory":2,"la1":30.2991,"la2":30.254,"lo1":-89.0895,"lo2":-89.0444,"dy":0.0017,"dx":0.0017,"nx":28,"ny":28,"refTime":"2024-10-10T21:00:00:Z","depth":"2","parameterNumber":2,"parameterNumberName":"U-component_of_CURRENTS"},"data":[0,0,0,0,0,0,0,0,0,0,0,0,0,0,0,0,0,0,0,0,0,0,0,0,0,0,0,0,0,0,0,0,0,0,0,0,0,0,0,0,0,0,0,0,0,0,0,0,0,0,0,0,0,0,0,0,0,0,0.013,0.013,0,0.0093,0.0092,0.0092,0.0084,0.0085,0.0085,0.0086,0.0116,0.0116,0.0117,0,0,0,0,0,0,0,0,0,0,0,0,0,0.0185,0.0184,0.0131,0.013,0.013,0.0093,0.0092,0.0091,0.0084,0.0085,0.0085,0.0086,0.0116,0.0116,0.0117,0,0,0,0,0,0,0,0,0,0,0,0,0,0.0154,0.0184,0.0131,0.0123,0.0122,0.0093,0.0092,0.0091,0.0084,0.0085,0.0086,0.0086,0.0115,0.0116,0.0117,0.0107,0,0,0.0118,0.0119,0,0,0,0,0,0,0,0,0.0156,0.0152,0.0124,0.0124,0.0122,0.0095,0.0122,0.01,0.0084,0.0097,0.0086,0.0087,0.0116,0.0116,0.0104,0.0108,0.0109,0.0118,0.0119,0.0119,0.0119,0,0,0,0,0,0,0,0.0158,0.0153,0.0114,0.0124,0.0123,0.0118,0.0114,0.0118,0.0103,0.0096,0.0096,0.0094,0.0116,0.0104,0.0105,0.011,0.0118,0.0119,0.0119,0.0119,0.0201,0.0203,0,0,0,0,0,0,0.0165,0.0155,0.0115,0.0113,0.0143,0.0116,0.0112,0.0102,0.0102,0.0102,0.0093,0.0094,0.0103,0.0105,0.0107,0.0168,0.0119,0.012,0.012,0.0199,0.0202,0.0204,0,0,0,0,0,0,0.0167,0.0162,0.0117,0.0135,0.0129,0.0115,0.0104,0.0101,0.0113,0.0099,0.0101,0.0111,0.0103,0.0106,0.0133,0.0166,0.012,0.012,0.0197,0.02,0.0203,0.0244,0,0,0,0,0,0,0.0168,0.0162,0.0167,0.0135,0.0129,0.0115,0.0103,0.01,0.011,0.0111,0.0115,0.0116,0.0104,0.0133,0.0134,0.0166,0.0121,0.0195,0.0198,0.0202,0.024,0.0248,0.0254,0,0,0,0,0,0.017,0.0168,0.0167,0.0163,0.0131,0.0115,0.0112,0.0102,0.0111,0.0116,0.0126,0.0118,0.0156,0.0134,0.0135,0.0169,0.0193,0.0197,0.0201,0.0237,0.0246,0.0254,0,0,0,0,0,0,0.0194,0.0166,0.0164,0.0154,0.0146,0.0115,0.0122,0.0118,0.0127,0.0141,0.0131,0.0133,0.0172,0.0168,0.0144,0.0206,0.0178,0.0182,0.0205,0.0213,0.022,0.0221,0.0121,0,0,0,0,0,0.0201,0.0197,0.0171,0.017,0.0167,0.0152,0.015,0.0146,0.0144,0.0148,0.0153,0.0168,0.0185,0.0197,0.0207,0.0234,0.0229,0.0262,0.0269,0.0275,0.0279,0.0298,0.0306,0.0217,0.0217,0.0217,0,0,0.0214,0.0198,0.0198,0.0177,0.0171,0.0171,0.0153,0.0158,0.0169,0.0152,0.0183,0.0192,0.0199,0.023,0.0248,0.0233,0.0299,0.028,0.0285,0.0286,0.0303,0.0311,0.0318,0.022,0.0219,0.0219,0,0,0.0234,0.0223,0.0227,0.022,0.0215,0.0202,0.0212,0.02,0.0207,0.0229,0.0229,0.0261,0.0277,0.029,0.0298,0.0353,0.0335,0.0364,0.0397,0.0416,0.0423,0.0429,0.0433,0.0439,0.0367,0.0367,0.0367,0,0.0258,0.0248,0.0229,0.0231,0.0231,0.0223,0.0232,0.0234,0.0238,0.0248,0.0251,0.0295,0.0307,0.0344,0.0368,0.0369,0.0367,0.036,0.0423,0.0429,0.0434,0.0437,0.0443,0.037,0.0369,0.0369,0.0369,0,0.0272,0.0274,0.0279,0.0278,0.0276,0.0284,0.0279,0.0294,0.0308,0.0308,0.0352,0.0365,0.0389,0.0408,0.0405,0.0456,0.0439,0.0427,0.0395,0.0445,0.0446,0.0451,0.0373,0.0372,0.0372,0.0371,0,0,0.0301,0.0292,0.0298,0.0304,0.0301,0.0301,0.0325,0.0333,0.0354,0.0376,0.0399,0.0448,0.0455,0.0466,0.0473,0.0498,0.0542,0.0483,0.0483,0.0477,0.0572,0.0588,0.0595,0.0536,0.0537,0.0538,0.0557,0,0.0324,0.0338,0.0324,0.0348,0.0353,0.0349,0.0367,0.038,0.0392,0.0412,0.0438,0.0465,0.0476,0.0493,0.0522,0.0525,0.0559,0.0538,0.0535,0.0535,0.0534,0.0604,0.0411,0.0414,0.0562,0.0563,0.0563,0,0.034,0.0346,0.0372,0.0377,0.038,0.04,0.0422,0.0434,0.0455,0.0462,0.049,0.0494,0.0532,0.0536,0.0578,0.056,0.0583,0.059,0.059,0.0594,0.0562,0.039,0.0418,0.0572,0.0572,0.0571,0.057,0,0.0363,0.0376,0.04,0.0404,0.0413,0.0436,0.0446,0.0464,0.0472,0.0495,0.0496,0.0532,0.0546,0.0576,0.0596,0.0587,0.0633,0.0616,0.0657,0.0657,0.0488,0.0472,0.0673,0.0673,0.0673,0.0673,0.0673,0,0.0379,0.0398,0.0422,0.0437,0.0471,0.0468,0.0504,0.0512,0.0521,0.0537,0.053,0.0548,0.056,0.0577,0.06,0.0644,0.0639,0.0681,0.0675,0.05,0.0486,0.0616,0.0609,0.0674,0.0674,0.0674,0.0674,0,0.0392,0.041,0.0438,0.0469,0.0484,0.0512,0.0531,0.0548,0.0549,0.0564,0.0567,0.0561,0.0589,0.0596,0.0638,0.0651,0.0686,0.0711,0.0504,0.0476,0.0694,0.0689,0.0753,0.0754,0.0755,0.0756,0.0756,0,0.0393,0.0413,0.0466,0.0492,0.0513,0.0549,0.0571,0.0574,0.0582,0.0583,0.0589,0.0605,0.063,0.0669,0.0694,0.0729,0.0731,0.0557,0.0534,0.0721,0.0708,0.0702,0.0696,0.0311,0.0308,0.0305,0.0303,0,0.0386,0.0419,0.0441,0.0503,0.0544,0.0567,0.0598,0.0591,0.0594,0.0606,0.0621,0.0638,0.0684,0.0614,0.0642,0.0642,0.0531,0.0514,0.0742,0.0347,0.0313,0.0298,0.0304,0.028,0.0283,0.0284,0.0285,0.0286,0.0378,0.0394,0.0438,0.0492,0.0542,0.0562,0.0563,0.057,0.057,0.0542,0.0608,0.0515,0.053,0.047,0.0514,0.0475,0.056,0.0408,0.041,0.0417,0.039,0.0362,0.0331,0.0334,0.0336,0.0338,0.0339,0,0.034,0.0374,0.0418,0.0467,0.0497,0.0564,0.0563,0.0527,0.0508,0.0495,0.0511,0.027,0.0237,0.0212,0.0153,0.0251,0.0232,0.0174,0.0057,0.0076,0.0094,0.0048,-0.0099,-0.0099,-0.0099,-0.0099,0,0,0.0318,0.0333,0.0356,0.0396,0.0462,0.0473,0.0474,0.0424,0.0375,0.0242,0.0098,0.0184,0.0128,-0.0021,0.0036,-0.0061,0.0032,-0.0064,0.0261,0.0138,0.0158,0.0174,0.0118,0,0,0,0,0]},{"header":{"parameterUnit":"m.s-1","parameterCategory":2,"la1":30.2991,"la2":30.254,"lo1":-89.0895,"lo2":-89.0444,"dy":0.0017,"dx":0.0017,"nx":28,"ny":28,"refTime":"2024-10-10T21:00:00:Z","depth":"2","parameterNumber":3,"parameterNumberName":"V-component_of_CURRENTS"},"data":[0,0,0,0,0,0,0,0,0,0,0,0,0,0,0,0,0,0,0,0,0,0,0,0,0,0,0,0,0,0,0,0,0,0,0,0,0,0,0,0,0,0,0,0,0,0,0,0,0,0,0,0,0,0,0,0,0,0,0.0375,0.0375,0,0.0393,0.0393,0.0393,0.0363,0.0362,0.0361,0.0361,0.032,0.032,0.032,0,0,0,0,0,0,0,0,0,0,0,0,0,0.0292,0.0294,0.0375,0.0375,0.0375,0.0393,0.0393,0.0393,0.0363,0.0362,0.0361,0.036,0.032,0.032,0.032,0,0,0,0,0,0,0,0,0,0,0,0,0,0.0319,0.0294,0.0375,0.0364,0.0363,0.0393,0.0393,0.0393,0.0364,0.0362,0.0361,0.036,0.032,0.032,0.032,0.0343,0,0,0.0318,0.0318,0,0,0,0,0,0,0,0,0.0318,0.0322,0.0365,0.0365,0.0364,0.0376,0.0349,0.0374,0.0364,0.0362,0.0361,0.0359,0.0335,0.0334,0.0338,0.0341,0.0339,0.0318,0.0318,0.0318,0.0318,0,0,0,0,0,0,0,0.0316,0.0321,0.038,0.0366,0.0365,0.0351,0.0353,0.0353,0.0353,0.0362,0.036,0.0365,0.0334,0.0339,0.0337,0.0339,0.0318,0.0318,0.0318,0.0318,0.0323,0.0323,0,0,0,0,0,0,0.032,0.032,0.038,0.0381,0.0339,0.0353,0.0356,0.0372,0.0354,0.0352,0.0366,0.0364,0.034,0.0338,0.0336,0.0326,0.0318,0.0318,0.0317,0.0323,0.0323,0.0323,0,0,0,0,0,0,0.0319,0.0326,0.0379,0.0351,0.0357,0.0357,0.0374,0.0373,0.0357,0.0359,0.0354,0.0349,0.0339,0.0336,0.0326,0.0325,0.0317,0.0317,0.0322,0.0323,0.0323,0.0329,0,0,0,0,0,0,0.0316,0.0326,0.0324,0.0352,0.0359,0.0387,0.0376,0.0374,0.0364,0.036,0.0343,0.0339,0.0338,0.0327,0.0325,0.0324,0.0317,0.0322,0.0322,0.0323,0.0328,0.033,0.0331,0,0,0,0,0,0.0314,0.0327,0.0324,0.033,0.0362,0.0388,0.0389,0.0383,0.0364,0.0361,0.035,0.0339,0.033,0.0327,0.0325,0.0324,0.0321,0.0322,0.0323,0.0328,0.0329,0.0331,0,0,0,0,0,0,0.0289,0.0326,0.0323,0.0346,0.0358,0.0383,0.0379,0.0374,0.0364,0.0351,0.0343,0.034,0.0334,0.0329,0.0325,0.0329,0.0324,0.0325,0.0328,0.033,0.0331,0.0346,0.0316,0,0,0,0,0,0.0285,0.0302,0.0331,0.0344,0.0351,0.0359,0.0362,0.036,0.0363,0.0356,0.0344,0.0336,0.0343,0.0334,0.0337,0.0335,0.0352,0.0334,0.0335,0.0336,0.0349,0.0395,0.0402,0.0326,0.0326,0.0326,0,0,0.0278,0.0299,0.0307,0.0338,0.0345,0.0363,0.0356,0.0362,0.0368,0.0354,0.0342,0.0339,0.0345,0.0348,0.0344,0.0337,0.0361,0.0338,0.0338,0.035,0.0396,0.0404,0.0411,0.0327,0.0327,0.0327,0,0,0.0282,0.0292,0.0308,0.0323,0.0338,0.035,0.0347,0.036,0.0352,0.035,0.0348,0.0352,0.0337,0.0357,0.0364,0.0376,0.0371,0.0359,0.0371,0.0415,0.0422,0.0428,0.0435,0.0442,0.0354,0.0354,0.0354,0,0.0264,0.03,0.0313,0.0334,0.0346,0.0343,0.0362,0.0363,0.0364,0.0367,0.0342,0.0359,0.0354,0.0389,0.0386,0.0381,0.0386,0.0363,0.0418,0.0425,0.0431,0.0437,0.0445,0.0354,0.0354,0.0354,0.0354,0,0.0292,0.0309,0.032,0.0348,0.036,0.0375,0.0388,0.0383,0.0366,0.0371,0.0383,0.0388,0.0397,0.0396,0.0389,0.0431,0.0411,0.0419,0.0415,0.0439,0.0443,0.0451,0.0355,0.0355,0.0355,0.0355,0,0,0.0283,0.033,0.033,0.0349,0.0369,0.0389,0.0395,0.0416,0.0423,0.0412,0.0432,0.0443,0.0434,0.0442,0.0439,0.0472,0.0507,0.0452,0.0454,0.046,0.0571,0.0553,0.056,0.0517,0.0519,0.052,0.0546,0,0.0296,0.0341,0.0359,0.0391,0.0418,0.0421,0.0433,0.0444,0.044,0.0453,0.0467,0.047,0.0454,0.0445,0.0482,0.0501,0.0531,0.0497,0.0546,0.0548,0.0531,0.0571,0.0646,0.0676,0.0554,0.0555,0.0556,0,0.032,0.035,0.0384,0.0428,0.0438,0.0442,0.0465,0.0476,0.0493,0.0485,0.0498,0.0496,0.0526,0.0511,0.0571,0.0541,0.0558,0.0577,0.0579,0.0572,0.0546,0.0637,0.0695,0.057,0.0569,0.0568,0.0567,0,0.0327,0.0372,0.0398,0.0412,0.0452,0.0451,0.0459,0.0474,0.0475,0.0491,0.048,0.053,0.052,0.0577,0.0568,0.0575,0.0631,0.0654,0.0661,0.0658,0.074,0.0741,0.0724,0.0724,0.0724,0.0724,0.0723,0,0.0354,0.0376,0.0393,0.0412,0.043,0.045,0.0455,0.0467,0.0471,0.0465,0.048,0.0479,0.0534,0.0551,0.0585,0.0623,0.064,0.0678,0.0679,0.0739,0.074,0.0666,0.0659,0.0724,0.0724,0.0724,0.0724,0,0.037,0.0381,0.0415,0.0438,0.0434,0.0442,0.0431,0.0445,0.0427,0.0418,0.0408,0.0433,0.0448,0.0487,0.0561,0.0618,0.0673,0.068,0.0717,0.0723,0.0675,0.0668,0.0743,0.0743,0.0743,0.0743,0.0743,0,0.0389,0.0404,0.042,0.0422,0.0422,0.0419,0.0421,0.0416,0.0413,0.038,0.0381,0.0376,0.0367,0.0456,0.0575,0.0652,0.0625,0.0766,0.0823,0.0691,0.0684,0.0677,0.067,0.0923,0.0925,0.0926,0.0927,0,0.0427,0.0416,0.0445,0.0439,0.0432,0.0439,0.0423,0.0406,0.0385,0.0343,0.0299,0.0281,0.0363,0.0512,0.0614,0.067,0.0769,0.0793,0.0676,0.0891,0.086,0.0853,0.0841,0.0937,0.0936,0.0936,0.0935,0.0935,0.0442,0.0464,0.0477,0.0479,0.0461,0.0451,0.0414,0.0403,0.0363,0.0303,0.0303,0.0354,0.0471,0.0706,0.0681,0.0743,0.0812,0.0899,0.0897,0.0893,0.0895,0.0864,0.094,0.0939,0.0938,0.0937,0.0937,0,0.0486,0.0499,0.0515,0.0524,0.0531,0.0473,0.0413,0.0377,0.03,0.0318,0.0278,0.0514,0.0662,0.0732,0.0886,0.0912,0.0881,0.0864,0.0889,0.0886,0.0882,0.0879,0.0922,0.0919,0.0917,0.0915,0,0,0.051,0.0552,0.0575,0.0599,0.0562,0.0454,0.0379,0.0333,0.0312,0.0345,0.0465,0.0606,0.0771,0.086,0.0874,0.09,0.0818,0.0845,0.0894,0.0918,0.0907,0.0987,0.0992,0,0,0,0,0]}],[{"header":{"parameterUnit":"m.s-1","parameterCategory":2,"la1":30.2991,"la2":30.254,"lo1":-89.0895,"lo2":-89.0444,"dy":0.0017,"dx":0.0017,"nx":28,"ny":28,"refTime":"2024-10-10T21:00:00:Z","depth":"4","parameterNumber":2,"parameterNumberName":"U-component_of_CURRENTS"},"data":[0,0,0,0,0,0,0,0,0,0,0,0,0,0,0,0,0,0,0,0,0,0,0,0,0,0,0,0,0,0,0,0,0,0,0,0,0,0,0,0,0,0,0,0,0,0,0,0,0,0,0,0,0,0,0,0,0,0,-0.0599,-0.0599,0,-0.0596,-0.0596,-0.0596,-0.0598,-0.0599,-0.0599,-0.0599,-0.0568,-0.0567,-0.0566,0,0,0,0,0,0,0,0,0,0,0,0,0,-0.0585,-0.0585,-0.0599,-0.0599,-0.0599,-0.0596,-0.0596,-0.0595,-0.0598,-0.0599,-0.0599,-0.0599,-0.0569,-0.0567,-0.0566,0,0,0,0,0,0,0,0,0,0,0,0,0,-0.0586,-0.0585,-0.0599,-0.0602,-0.0602,-0.0596,-0.0596,-0.0595,-0.0598,-0.0599,-0.0599,-0.0599,-0.0569,-0.0568,-0.0566,-0.0548,0,0,-0.0561,-0.056,0,0,0,0,0,0,0,0,-0.0586,-0.0586,-0.0601,-0.0601,-0.0602,-0.0599,-0.058,-0.0579,-0.0598,-0.0598,-0.0599,-0.06,-0.0577,-0.0575,-0.0571,-0.0546,-0.0545,-0.0561,-0.056,-0.0559,-0.0559,0,0,0,0,0,0,0,-0.0586,-0.0586,-0.0596,-0.0601,-0.0602,-0.0595,-0.0596,-0.0579,-0.0583,-0.0598,-0.0598,-0.0601,-0.0577,-0.0573,-0.057,-0.0545,-0.0561,-0.056,-0.0559,-0.0558,-0.053,-0.053,0,0,0,0,0,0,-0.059,-0.0586,-0.0596,-0.0596,-0.0597,-0.0595,-0.0596,-0.0598,-0.0584,-0.0583,-0.06,-0.0601,-0.0575,-0.0572,-0.0569,-0.0579,-0.0559,-0.0558,-0.0557,-0.053,-0.053,-0.053,0,0,0,0,0,0,-0.059,-0.0591,-0.0596,-0.0592,-0.0593,-0.0596,-0.0598,-0.0598,-0.0605,-0.0587,-0.0585,-0.0609,-0.0576,-0.0572,-0.0567,-0.0576,-0.0557,-0.0556,-0.053,-0.053,-0.053,-0.0577,0,0,0,0,0,0,-0.059,-0.0591,-0.0596,-0.0593,-0.0593,-0.0601,-0.0598,-0.0598,-0.0606,-0.0607,-0.0593,-0.059,-0.0576,-0.0569,-0.0565,-0.0574,-0.0554,-0.0529,-0.053,-0.053,-0.0575,-0.0579,-0.0582,0,0,0,0,0,-0.0589,-0.0593,-0.0596,-0.0598,-0.0599,-0.0601,-0.0601,-0.0603,-0.0606,-0.061,-0.0604,-0.0591,-0.0569,-0.0568,-0.0563,-0.0572,-0.0529,-0.053,-0.053,-0.0574,-0.0578,-0.0582,0,0,0,0,0,0,-0.0591,-0.0594,-0.0597,-0.0603,-0.0607,-0.0603,-0.0608,-0.0609,-0.0607,-0.061,-0.0593,-0.059,-0.0587,-0.0572,-0.0572,-0.0564,-0.0547,-0.0546,-0.0582,-0.0586,-0.0589,-0.0593,-0.0553,0,0,0,0,0,-0.0594,-0.0599,-0.0601,-0.0608,-0.0611,-0.0612,-0.0614,-0.0616,-0.0613,-0.0614,-0.0605,-0.0594,-0.0583,-0.058,-0.0564,-0.0561,-0.0549,-0.0563,-0.0566,-0.057,-0.0569,-0.0556,-0.0559,-0.0532,-0.0532,-0.0532,0,0,-0.0599,-0.06,-0.0605,-0.0609,-0.0612,-0.0615,-0.0614,-0.0623,-0.0626,-0.0609,-0.0613,-0.0603,-0.0583,-0.0581,-0.0579,-0.0572,-0.0574,-0.057,-0.0573,-0.057,-0.0557,-0.056,-0.0562,-0.0532,-0.0532,-0.0532,0,0,-0.0606,-0.0613,-0.0617,-0.0621,-0.0628,-0.0626,-0.0632,-0.0634,-0.0638,-0.0638,-0.0629,-0.0629,-0.0609,-0.0604,-0.0596,-0.0608,-0.059,-0.0603,-0.0627,-0.0616,-0.0618,-0.062,-0.0623,-0.0624,-0.0608,-0.0608,-0.0608,0,-0.0612,-0.0615,-0.062,-0.0624,-0.0627,-0.0633,-0.0637,-0.0641,-0.0642,-0.0647,-0.0644,-0.0632,-0.0619,-0.0621,-0.0627,-0.0616,-0.061,-0.0616,-0.0621,-0.0622,-0.0623,-0.0626,-0.0627,-0.0611,-0.061,-0.061,-0.061,0,-0.0618,-0.0624,-0.0629,-0.0633,-0.0638,-0.0644,-0.065,-0.0657,-0.0661,-0.0665,-0.0672,-0.0662,-0.0655,-0.0655,-0.0644,-0.0649,-0.0644,-0.0625,-0.0613,-0.0629,-0.063,-0.0631,-0.0614,-0.0613,-0.0612,-0.0612,0,0,-0.0619,-0.063,-0.0632,-0.0633,-0.0643,-0.0645,-0.0657,-0.0665,-0.0675,-0.0683,-0.0695,-0.069,-0.0694,-0.0685,-0.0679,-0.0677,-0.0686,-0.0659,-0.0657,-0.0667,-0.0672,-0.0624,-0.062,-0.0669,-0.0669,-0.0668,-0.0676,0,-0.0621,-0.0625,-0.0632,-0.0638,-0.0639,-0.065,-0.0659,-0.0671,-0.0681,-0.0695,-0.0703,-0.0706,-0.0703,-0.0703,-0.0704,-0.0687,-0.0686,-0.0686,-0.065,-0.0649,-0.0609,-0.0618,-0.0668,-0.0676,-0.0676,-0.0676,-0.0676,0,-0.0617,-0.062,-0.0626,-0.0635,-0.0638,-0.0643,-0.0657,-0.0665,-0.069,-0.0701,-0.0718,-0.0723,-0.0736,-0.072,-0.0716,-0.0716,-0.0696,-0.0685,-0.0684,-0.0621,-0.0601,-0.0651,-0.0676,-0.0676,-0.0676,-0.0676,-0.0676,0,-0.0599,-0.0612,-0.0615,-0.0619,-0.0633,-0.0639,-0.0644,-0.0667,-0.067,-0.0702,-0.0709,-0.0735,-0.0732,-0.0727,-0.0715,-0.0712,-0.0702,-0.069,-0.0633,-0.063,-0.0651,-0.0649,-0.0673,-0.0673,-0.0673,-0.0673,-0.0673,0,-0.0584,-0.0587,-0.0607,-0.0606,-0.0608,-0.0626,-0.0625,-0.0645,-0.0664,-0.0663,-0.0706,-0.0703,-0.0728,-0.073,-0.0722,-0.0684,-0.0706,-0.0637,-0.0624,-0.0673,-0.0673,-0.0653,-0.065,-0.0673,-0.0673,-0.0673,-0.0673,0,-0.0559,-0.0572,-0.0578,-0.0597,-0.0596,-0.0599,-0.0596,-0.0592,-0.0626,-0.0627,-0.0635,-0.0674,-0.0673,-0.0701,-0.069,-0.0674,-0.0654,-0.0629,-0.0698,-0.0689,-0.0592,-0.0592,-0.057,-0.0569,-0.0567,-0.0566,-0.0565,0,-0.0545,-0.0545,-0.0564,-0.0558,-0.0564,-0.0559,-0.0543,-0.0564,-0.0557,-0.0592,-0.0585,-0.0607,-0.0625,-0.0589,-0.062,-0.0621,-0.0603,-0.0605,-0.0585,-0.059,-0.058,-0.0582,-0.0584,-0.0562,-0.0562,-0.0562,-0.0561,0,-0.0523,-0.0539,-0.0547,-0.0534,-0.0519,-0.0494,-0.0479,-0.047,-0.049,-0.0521,-0.0511,-0.0522,-0.0522,-0.0538,-0.0548,-0.0542,-0.0618,-0.059,-0.0592,-0.0573,-0.058,-0.0572,-0.0575,-0.0556,-0.0557,-0.0557,-0.0558,0,-0.0515,-0.0519,-0.053,-0.0515,-0.0488,-0.0446,-0.0437,-0.0412,-0.0406,-0.0448,-0.0433,-0.0468,-0.0494,-0.0494,-0.05,-0.0503,-0.0488,-0.0477,-0.0485,-0.0491,-0.0464,-0.0461,-0.0387,0,0,0,0,0,-0.0499,-0.0504,-0.0499,-0.0482,-0.0449,-0.0435,-0.0402,-0.0396,-0.0409,-0.0378,-0.0407,-0.0402,-0.0413,-0.0431,-0.0417,-0.0478,-0.0505,-0.0461,-0.05,-0.0528,-0.0534,-0.051,0,0,0,0,0,0,-0.0494,-0.0499,-0.0503,-0.0453,-0.0432,-0.0389,-0.0369,-0.0374,-0.0354,-0.0374,-0.0372,-0.0389,-0.0399,-0.0422,-0.0418,-0.0424,-0.044,-0.0479,-0.0478,-0.0525,-0.053,-0.0535,-0.0513,0,0,0,0,0]},{"header":{"parameterUnit":"m.s-1","parameterCategory":2,"la1":30.2991,"la2":30.254,"lo1":-89.0895,"lo2":-89.0444,"dy":0.0017,"dx":0.0017,"nx":28,"ny":28,"refTime":"2024-10-10T21:00:00:Z","depth":"4","parameterNumber":3,"parameterNumberName":"V-component_of_CURRENTS"},"data":[0,0,0,0,0,0,0,0,0,0,0,0,0,0,0,0,0,0,0,0,0,0,0,0,0,0,0,0,0,0,0,0,0,0,0,0,0,0,0,0,0,0,0,0,0,0,0,0,0,0,0,0,0,0,0,0,0,0,0.0497,0.0497,0,0.0534,0.0534,0.0535,0.056,0.056,0.0561,0.0561,0.0596,0.0597,0.0597,0,0,0,0,0,0,0,0,0,0,0,0,0,0.0463,0.0464,0.0497,0.0497,0.0498,0.0534,0.0534,0.0535,0.056,0.056,0.0561,0.0561,0.0596,0.0597,0.0597,0,0,0,0,0,0,0,0,0,0,0,0,0,0.0487,0.0464,0.0497,0.0515,0.0517,0.0534,0.0534,0.0535,0.056,0.056,0.0561,0.0561,0.0595,0.0596,0.0598,0.0599,0,0,0.0601,0.0602,0,0,0,0,0,0,0,0,0.0486,0.0488,0.0512,0.0514,0.0516,0.0543,0.0535,0.0556,0.056,0.0544,0.0561,0.0561,0.0578,0.058,0.0587,0.0601,0.0602,0.0601,0.0602,0.0602,0.0603,0,0,0,0,0,0,0,0.0484,0.0487,0.0512,0.0512,0.0515,0.0526,0.0529,0.0539,0.0559,0.0545,0.0547,0.0551,0.0579,0.0586,0.0588,0.0603,0.0601,0.0602,0.0603,0.0603,0.063,0.063,0,0,0,0,0,0,0.0478,0.0485,0.0511,0.0513,0.0501,0.0526,0.053,0.0534,0.0559,0.0563,0.0551,0.0552,0.0583,0.0586,0.0589,0.0607,0.0602,0.0603,0.0604,0.063,0.063,0.063,0,0,0,0,0,0,0.0477,0.048,0.0509,0.05,0.0504,0.0526,0.053,0.0534,0.0548,0.0563,0.0567,0.0561,0.0584,0.0587,0.0605,0.0608,0.0604,0.0605,0.063,0.063,0.063,0.0634,0,0,0,0,0,0,0.0476,0.0479,0.0486,0.0499,0.0505,0.0522,0.053,0.0535,0.055,0.0552,0.0573,0.0576,0.0584,0.0603,0.0606,0.061,0.0606,0.063,0.063,0.063,0.0634,0.0634,0.0635,0,0,0,0,0,0.0475,0.048,0.0487,0.049,0.0511,0.0522,0.0526,0.0542,0.055,0.0556,0.0572,0.0576,0.0605,0.0605,0.0608,0.0612,0.063,0.063,0.063,0.0634,0.0634,0.0635,0,0,0,0,0,0,0.047,0.0483,0.0491,0.0501,0.0512,0.0526,0.0536,0.0545,0.0563,0.0567,0.0581,0.0585,0.0599,0.0604,0.0603,0.0618,0.0617,0.0617,0.0618,0.0619,0.0619,0.0634,0.0607,0,0,0,0,0,0.0471,0.0479,0.0492,0.0501,0.0506,0.0522,0.0531,0.054,0.0554,0.0563,0.0578,0.0591,0.06,0.061,0.0617,0.063,0.0646,0.0633,0.0633,0.0634,0.0647,0.0665,0.0669,0.063,0.063,0.063,0,0,0.047,0.048,0.0485,0.05,0.0511,0.0514,0.0528,0.054,0.0543,0.0563,0.0578,0.0593,0.0603,0.0615,0.0622,0.0623,0.0653,0.0634,0.0634,0.0648,0.0666,0.067,0.0673,0.063,0.063,0.063,0,0,0.0468,0.0482,0.0487,0.0494,0.0509,0.0517,0.052,0.0537,0.0547,0.0561,0.0574,0.0597,0.0609,0.0623,0.0629,0.0636,0.0651,0.0634,0.0653,0.0669,0.0673,0.0677,0.0704,0.071,0.0637,0.0637,0.0637,0,0.0468,0.0474,0.0489,0.0492,0.0496,0.0515,0.0515,0.0525,0.0547,0.0557,0.0565,0.0599,0.0612,0.063,0.0641,0.0638,0.0656,0.065,0.0671,0.0675,0.0678,0.0706,0.0712,0.0637,0.0637,0.0637,0.0637,0,0.0464,0.047,0.0472,0.0481,0.0487,0.0491,0.0502,0.0513,0.0528,0.0544,0.057,0.0596,0.0622,0.0625,0.0642,0.0671,0.068,0.0667,0.0672,0.0682,0.0711,0.0717,0.0637,0.0637,0.0637,0.0637,0,0,0.0454,0.0467,0.0468,0.0472,0.0481,0.0487,0.0488,0.0502,0.0504,0.0539,0.0548,0.0592,0.0626,0.0636,0.0658,0.0684,0.0731,0.0697,0.0698,0.0729,0.0784,0.0772,0.0779,0.0723,0.0724,0.0725,0.0795,0,0.0445,0.045,0.0456,0.0456,0.0459,0.0469,0.0469,0.0484,0.0496,0.051,0.0552,0.0573,0.0621,0.064,0.0678,0.0712,0.0749,0.0714,0.0766,0.0768,0.076,0.0786,0.0729,0.08,0.0802,0.0803,0.0804,0,0.0438,0.0442,0.0446,0.0448,0.045,0.0456,0.0459,0.0462,0.0481,0.0491,0.0533,0.0559,0.0626,0.0643,0.0742,0.0721,0.0768,0.0792,0.0795,0.0791,0.0769,0.0786,0.0816,0.0815,0.0814,0.0813,0.0812,0,0.0429,0.0433,0.044,0.0441,0.0447,0.0455,0.0461,0.047,0.0481,0.0492,0.0511,0.0564,0.0617,0.0671,0.0774,0.0754,0.0868,0.0832,0.0866,0.0866,0.0853,0.0849,0.0896,0.0896,0.0896,0.0896,0.0895,0,0.0416,0.0421,0.0444,0.0447,0.0463,0.0461,0.0474,0.0477,0.0484,0.052,0.0527,0.0556,0.0633,0.0711,0.0769,0.0865,0.0876,0.0886,0.0886,0.0852,0.0847,0.0858,0.0853,0.0898,0.0898,0.0897,0.0897,0,0.0411,0.0421,0.0439,0.0454,0.0466,0.0484,0.0509,0.0515,0.0518,0.056,0.0574,0.0589,0.0687,0.0773,0.0861,0.0877,0.0939,0.0969,0.0956,0.0951,0.0919,0.0913,0.098,0.098,0.098,0.0981,0.0981,0,0.0409,0.0417,0.0459,0.0491,0.0509,0.0535,0.0555,0.0547,0.055,0.0589,0.0605,0.0688,0.0729,0.0836,0.0896,0.0998,0.1006,0.1012,0.0942,0.0936,0.0929,0.0922,0.0916,0.0981,0.0981,0.0981,0.0981,0,0.041,0.0437,0.0457,0.0525,0.0565,0.0591,0.0612,0.0597,0.0606,0.0633,0.0648,0.0686,0.0789,0.0832,0.0943,0.1,0.0978,0.1014,0.1012,0.0947,0.0938,0.0929,0.0923,0.0982,0.0982,0.0982,0.0982,0,0.0425,0.0453,0.0501,0.0562,0.0613,0.0631,0.0624,0.063,0.0625,0.0649,0.066,0.0741,0.0791,0.0836,0.0921,0.0996,0.0975,0.0929,0.0932,0.0931,0.0886,0.0866,0.0903,0,0,0,0,0,0.0437,0.0482,0.0537,0.0596,0.0646,0.0675,0.0662,0.0639,0.0638,0.0663,0.0658,0.0751,0.0835,0.0823,0.0901,0.0911,0.0988,0.0993,0.0936,0.0986,0.0985,0.0938,0,0,0,0,0,0,0.0452,0.0507,0.054,0.062,0.0664,0.0704,0.0687,0.068,0.065,0.0664,0.0697,0.0748,0.0822,0.0848,0.0913,0.0929,0.0884,0.1049,0.1047,0.0987,0.0986,0.0985,0.0936,0,0,0,0,0]}]]